EW6959 Weather Reports


time (UTC)temp
C
wind
direction
speed
KPH
gust
KPH
rain 1hr
cm
rain 24hr
cm
rain mn
cm
humidity
%
barometer
mb
20260507141543 8 200 0.0 0.0 0.00 0.00 0.00 84 1021.0
20260507140039 8 217 0.0 1.6 0.00 0.00 0.00 84 1020.9
20260507134540 8 204 0.0 0.0 0.00 0.00 0.00 84 1020.8
20260507133037 8 204 0.0 0.0 0.00 0.00 0.00 84 1020.7
20260507131536 8 204 0.0 0.0 0.00 0.00 0.00 83 1020.6
20260507130033 8 210 0.0 0.0 0.00 0.00 0.00 83 1020.7
20260507124531 8 210 0.0 0.0 0.00 0.00 0.00 82 1020.6
20260507123030 8 210 0.0 0.0 0.00 0.00 0.00 82 1020.8
20260507121529 9 200 0.0 0.0 0.00 0.00 0.00 82 1020.8
20260507120026 9 201 0.0 0.0 0.00 0.00 0.00 82 1020.9
20260507114525 9 222 0.0 1.6 0.00 0.00 0.00 82 1021.1
20260507113027 9 202 0.0 3.2 0.00 0.00 0.00 81 1021.1
20260507111535 9 187 0.0 0.0 0.00 0.00 0.00 81 1021.2
20260507110022 9 211 0.0 0.0 0.00 0.00 0.00 81 1021.3
20260507104521 9 202 0.0 0.0 0.00 0.00 0.00 81 1021.1
20260507103019 9 198 0.0 1.6 0.00 0.00 0.00 80 1021.2
20260507101519 10 226 0.0 4.8 0.00 0.00 0.00 80 1021.3
20260507100019 10 181 0.0 0.0 0.00 0.00 0.00 80 1021.2
20260507094516 10 225 0.0 3.2 0.00 0.00 0.00 80 1021.2
20260507093020 10 211 0.0 4.8 0.00 0.00 0.00 80 1021.2
20260507091524 10 239 0.0 4.8 0.00 0.00 0.00 80 1021.3
20260507090017 10 200 0.0 1.6 0.00 0.00 0.00 79 1021.3
20260507084519 10 242 0.0 0.0 0.00 0.00 0.00 79 1021.3
20260507083011 10 198 0.0 0.0 0.00 0.00 0.00 80 1021.3
20260507081519 10 182 0.0 0.0 0.00 0.00 0.00 80 1021.3
20260507080009 10 210 0.0 0.0 0.00 0.00 0.00 79 1021.3
20260507074508 10 264 0.0 0.0 0.00 0.00 0.00 79 1021.4
20260507073008 11 225 0.0 3.2 0.00 0.00 0.00 80 1021.3
20260507071504 11 260 0.0 0.0 0.00 0.00 0.00 81 1021.1
20260507070004 11 217 0.0 3.2 0.00 0.00 0.00 81 1021.1
20260507064502 11 184 0.0 0.0 0.00 0.00 0.00 82 1021.1
20260507063002 11 200 0.0 0.0 0.00 0.00 0.00 82 1021.2
20260507061502 11 257 0.0 6.4 0.00 0.00 0.00 82 1021.1
20260507060001 11 207 0.0 6.4 0.00 0.00 0.00 82 1021.1
20260507054501 11 184 0.0 0.0 0.00 0.00 0.00 82 1021.2
20260507053109 11 184 0.0 0.0 0.00 0.00 0.00 81 1021.2
20260507051601 11 273 0.0 0.0 0.00 0.00 0.00 81 1021.2
20260507050059 12 223 0.0 0.0 0.00 0.00 0.00 81 1021.2
20260507044606 12 218 0.0 4.8 0.00 0.00 0.00 81 1021.1
20260507043103 12 207 0.0 4.8 0.00 0.00 0.00 81 1021.2
20260507041600 12 173 0.0 4.8 0.00 0.00 0.00 80 1021.1
20260507040056 12 285 0.0 8.0 0.00 0.00 0.00 80 1021.0
20260507034606 12 196 0.0 6.4 0.00 0.00 0.00 79 1020.9
20260507033054 12 207 0.0 0.0 0.00 0.00 0.00 79 1020.8
20260507031552 12 248 0.0 0.0 0.00 0.00 0.00 78 1020.6
20260507030100 13 330 0.0 9.7 0.00 0.00 0.00 78 1020.5
20260507024556 13 220 0.0 0.0 0.00 0.00 0.00 78 1020.5
20260507023053 13 231 0.0 4.8 0.00 0.00 0.00 77 1020.4
20260507021556 13 214 0.0 0.0 0.00 0.00 0.00 77 1020.3
20260507020051 13 270 0.0 4.8 0.00 0.00 0.00 76 1020.3
20260507014553 13 311 0.0 8.0 0.00 0.00 0.00 76 1020.3
20260507013057 14 232 0.0 8.0 0.00 0.00 0.00 75 1020.1
20260507011548 14 195 0.0 8.0 0.00 0.00 0.00 75 1020.1
20260507010048 15 240 0.0 0.0 0.00 0.00 0.00 75 1020.2
20260507004547 15 340 0.0 4.8 0.00 0.00 0.00 74 1020.2
20260507003046 15 188 0.0 3.2 0.00 0.00 0.00 74 1020.2
20260507001547 15 198 0.0 8.0 0.00 0.00 0.00 73 1020.2
20260507000051 15 261 0.0 1.6 0.00 0.00 0.00 73 1020.1
20260506234548 15 312 0.0 8.0 0.00 0.00 0.00 72 1020.2
20260506233042 15 276 0.0 6.4 0.00 0.00 0.00 73 1020.1
20260506231543 15 248 0.0 1.6 0.00 0.00 0.00 74 1020.1
20260506230036 15 358 0.0 9.7 0.00 0.00 0.00 75 1020.2
20260506224534 15 10 0.0 0.0 0.00 0.00 0.00 75 1020.3
20260506223030 14 358 0.0 1.6 0.00 0.00 0.00 76 1020.4
20260506221529 14 6 0.0 9.7 0.00 0.00 0.00 77 1020.6
20260506220029 13 359 0.0 0.0 0.00 0.00 0.00 79 1020.6
20260506214525 13 174 0.0 4.8 0.00 0.00 0.00 79 1020.7
20260506213022 13 251 0.0 3.2 0.00 0.00 0.00 80 1020.7
20260506211523 13 205 0.0 11.3 0.00 0.00 0.00 81 1020.7
20260506210022 13 220 1.6 9.7 0.00 0.00 0.00 82 1020.8
20260506204517 13 184 0.0 1.6 0.00 0.00 0.00 84 1020.6
20260506203014 12 241 0.0 1.6 0.00 0.00 0.00 85 1020.6
20260506201512 12 203 0.0 4.8 0.00 0.00 0.00 86 1020.5
20260506200011 12 188 0.0 9.7 0.00 0.00 0.00 86 1020.6
20260506194512 12 249 0.0 1.6 0.00 0.00 0.00 88 1020.4
20260506193010 12 262 0.0 0.0 0.00 0.00 0.00 89 1020.4
20260506191509 12 224 0.0 4.8 0.00 0.00 0.00 90 1020.4
20260506190007 12 179 0.0 4.8 0.00 0.00 0.00 90 1020.5
20260506184507 11 183 0.0 6.4 0.00 0.00 0.00 91 1020.5
20260506183007 11 285 0.0 1.6 0.00 0.00 0.00 91 1020.2
20260506181504 11 194 0.0 0.0 0.00 0.00 0.00 91 1020.3
20260506180004 11 233 0.0 0.0 0.00 0.00 0.00 92 1020.3
20260506174502 11 203 0.0 0.0 0.00 0.00 0.00 92 1020.4
20260506173101 11 233 0.0 4.8 0.00 0.00 0.00 92 1020.3
20260506171604 11 295 0.0 0.0 0.00 0.00 0.00 93 1020.2
20260506170059 11 214 0.0 1.6 0.00 0.00 0.00 94 1020.1
20260506164601 11 210 0.0 4.8 0.00 0.00 0.00 94 1019.8
20260506163103 10 236 0.0 3.2 0.00 0.00 0.00 94 1019.7
20260506161603 10 217 0.0 0.0 0.00 0.00 0.00 94 1020.1
20260506160050 10 210 0.0 0.0 0.00 0.00 0.00 94 1019.9
20260506154608 10 221 0.0 0.0 0.00 0.00 0.00 94 1019.6
20260506153046 10 202 0.0 1.6 0.00 0.00 0.00 93 1019.8
20260506151546 10 299 0.0 0.0 0.00 0.00 0.00 94 1019.8
20260506150050 10 292 0.0 1.6 0.00 0.00 0.00 93 1019.7
20260506144549 10 229 0.0 0.0 0.00 0.00 0.00 93 1019.4
20260506143041 10 231 0.0 0.0 0.00 0.00 0.00 93 1019.6